Flag for Canada Weather past 2 weeks in Yorkton, Saskatchewan, Canada

Now
66 °F

Clear.


Feels Like: 66 °F
Forecast: 59 / 81 °F
Wind: 2 mph from South

Location: Yorkton

Current Time: Jul 31, 2014 at 12:11:41 AM

Latest Report: Jul 30, 2014 at 11:00 PM


Visibility: 8 mi

Pressure: 30.09 "Hg

Humidity: 73%

Dew point: 57 °F

Location of YorktonLocation

Historic Weather in Yorkton — Graph

°F

Yorkton temperature yesterday

Maximum temperature yesterday: 81 °F (at 4:00 PM)
Minimum temperature yesterday: 57 °F (at 2:00 AM)
Average temperature yesterday: 70 °F

Past Weeks' High & Low Weather Summary

 TemperatureHumidityPressure
High81 °F (Jul 17, 3:00 PM)100% (Jul 26, 5:58 AM)30.35 "Hg (Jul 26, 5:58 AM)
Low48 °F (Jul 28, 5:00 AM)34% (Jul 16, 2:00 PM)29.49 "Hg (Jul 18, 6:00 AM)
Average66 °F73%29.93 "Hg
* Reported Jul 15 11:00 PM — Jul 30 11:00 PM, Yorkton, Weather by CustomWeather, © 2014

Note: Actual official high and low records may vary slightly from our data, if they occured in-between our weather recording intervals... More about our weather records

Advertising

Yorkton weather history for previous 24 hours

 ConditionsComfort  
Time TempWeatherWind HumidityBarometerVisibility
11:00 PM
Jul 30
66 °FClear.2 mph73%30.09 "Hg8 mi
10:00 PM68 °FClear.5 mph69%30.10 "Hg9 mi
9:00 PM72 °FClear.5 mph65%30.10 "Hg9 mi
8:00 PM77 °FSunny.3 mph54%30.10 "Hg5 mi
7:59 PM77 °FSunny.3 mph54%30.10 "Hg5 mi
7:00 PM77 °FSunny.5 mph47%30.10 "Hg9 mi
6:00 PM79 °FSunny.2 mph48%30.11 "Hg9 mi
5:00 PM81 °FSunny.3 mph34%30.12 "Hg9 mi
4:00 PM81 °FSunny.3 mph39%30.12 "Hg9 mi
3:00 PM79 °FSunny.2 mph42%30.13 "Hg9 mi
2:00 PM79 °FPartly sunny.5 mph42%30.14 "Hg9 mi
1:00 PM79 °FPassing clouds.7 mph48%30.14 "Hg9 mi
12:00 PM77 °FScattered clouds.6 mph54%30.16 "Hg9 mi
11:00 AM75 °FSunny.6 mph57%30.16 "Hg9 mi
10:00 AM73 °FSunny.6 mph61%30.17 "Hg9 mi
9:00 AM72 °FSunny.5 mph65%30.18 "Hg9 mi
8:00 AM66 °FSunny.6 mph78%30.18 "Hg9 mi
7:00 AM63 °FSunny.3 mph83%30.18 "Hg9 mi
6:00 AM57 °FSunny.5 mph94%30.18 "Hg9 mi
5:00 AM57 °FClear.5 mph88%30.18 "Hg9 mi
4:00 AM57 °FClear.10 mph94%30.17 "Hg9 mi
3:00 AM59 °FClear.5 mph88%30.17 "Hg9 mi
2:00 AM57 °FClear.5 mph94%30.17 "Hg9 mi
1:00 AM63 °FClear.5 mph83%30.17 "Hg9 mi
12:00 AM64 °FClear.8 mph83%30.16 "Hg9 mi
Weather by CustomWeather, © 2014

See weather overviewHow to use our weather pages